Back to catalog

COSMOS 1174 DEB

AliveLEO
NORAD 11778·DEBRIS·🇷🇺 Russia

Launched Apr 18, 1980 from Baikonur Cosmodrome

Loading…

Next Passes (next 24 hours)

TLE

FreshSource: Space-Track

Epoch: Sep 13, 2026, 22:05 UTC

1 11778U 80030K   26256.92082544  .00000519  00000-0  21840-3 0  9993
2 11778  66.4754 133.4808 0437821 260.7210  94.4118 13.92086256296262

Track COSMOS 1174 DEB in real time with AllMySat

Download on the App Store